Temp
65 65 65 65 65 65 65 65 64 64 64 64 64 64 64 65 65 67 63 68 69 69 68 73 75 74 75 72 73 73 66 62 63 63 69 72 71 73 74 74 73 74 75 74 75
65 65 65 65 64 64 64 64 64 64 64 64 64 64 64 64 64 62 69 68 69 68 70 69 69 71 71 69 71 70 64 65 68 70 70 72 73 73 72 71 72 72 72 70 71
64 64 64 64 64 64 64 64 64 63 63 63 63 63 63 66 59 61 67 68 68 69 69 69 69 69 66 68 68 66 64 68 67 68 70 70 70 73 71 69 76 75 77 71 70
63 63 64 64 64 64 64 63 63 63 63 63 63 63 63 64 50 63 66 67 67 71 68 66 65 63 63 62 66 61 66 66 66 65 67 67 69 69 71 76 77 78 77 73 70
62 62 63 63 63 64 63 63 63 63 62 63 63 63 63 55 57 66 64 66 68 66 65 63 62 62 60 62 62 61 65 65 65 64 65 65 66 67 69 77 78 75 73 75 74
61 61 62 62 62 63 63 63 63 62 62 63 63 63 59 48 65 65 64 65 65 65 63 64 63 64 61 60 61 63 63 63 63 65 65 63 67 64 73 77 75 74 74 76 76
61 61 61 61 62 62 62 63 63 62 62 63 63 63 55 55 65 65 65 63 64 64 61 64 66 63 63 57 61 59 57 61 61 62 62 65 60 60 73 76 73 75 76 75 75
60 60 61 61 61 62 62 62 62 62 62 63 62 61 51 63 66 64 66 62 65 65 65 65 66 62 60 61 57 55 56 53 62 61 63 63 56 70 76 73 70 74 77 76 75
59 59 60 60 61 61 61 62 61 62 62 62 58 55 48 60 56 63 65 59 62 64 62 64 62 60 57 54 51 51 49 50 55 58 58 58 58 68 71 70 69 73 76 76 76
58 59 59 60 60 61 61 61 61 61 60 61 58 49 51 50 57 60 63 63 59 60 56 58 56 51 50 48 42 47 47 49 51 55 55 54 55 62 67 66 66 69 71 73 73
58 58 59 60 60 61 60 55 47 45 51 50 51 50 49 55 59 55 60 59 58 56 48 54 48 43 49 53 54 51 50 49 51 55 52 55 56 59 63 63 64 67 69 71 72
57 58 59 60 60 60 58 50 52 53 41 52 51 54 53 56 48 51 59 52 51 45 52 48 42 53 54 53 51 50 47 47 51 53 52 53 53 59 61 62 64 66 68 70 73
57 57 58 59 60 57 53 53 58 58 44 46 50 50 51 54 49 50 56 54 48 45 46 44 48 54 50 48 47 49 46 48 47 53 55 52 49 57 64 65 66 67 68 71 72
56 57 57 58 53 55 51 57 55 56 34 36 41 48 51 54 45 56 57 55 49 45 47 46 51 46 46 46 49 43 51 49 47 45 40 48 38 52 59 60 62 65 66 68 70
55 56 57 58 56 51 56 51 53 49 24 42 43 58 53 48 48 46 58 52 46 46 48 44 45 44 41 44 48 44 50 47 47 43 43 44 38 49 55 53 58 63 66 68 69
55 55 56 54 55 59 53 53 48 29 23 32 41 40 41 46 45 47 48 55 53 47 47 47 48 50 49 50 50 51 47 44 45 43 31 40 41 47 54 56 61 63 67 68 70
54 55 54 54 48 54 51 45 29 24 33 30 33 39 41 38 42 44 41 41 39 33 33 38 42 45 49 44 48 47 41 31 29 30 31 46 41 47 57 60 59 61 65 68 69
54 54 53 52 56 51 48 36 25 30 30 40 39 38 35 40 41 42 40 36 44 45 40 33 29 42 47 46 41 43 43 35 26 29 37 40 35 47 58 62 63 63 64 64 66
54 49 48 51 52 50 41 29 31 32 39 37 37 32 33 38 39 40 40 39 42 46 39 35 36 46 47 50 49 41 36 48 35 31 32 41 46 53 56 57 60 62 62 63 64
45 44 45 54 52 44 32 33 33 42 43 41 33 35 30 33 34 36 37 44 43 47 51 42 34 39 44 49 49 45 49 33 35 26 26 38 41 44 52 56 59 61 62 64 65
43 36 47 52 49 36 28 31 35 44 45 40 40 35 37 34 37 35 37 42 47 45 48 44 41 34 40 38 39 40 36 41 42 38 31 31 40 59 56 58 57 58 59 61 63
40 31 45 48 33 32 30 32 35 39 46 44 45 43 40 39 37 36 38 42 50 49 39 46 41 31 35 45 49 47 43 42 35 33 37 36 38 59 59 59 59 58 60 62 62
32 34 46 44 27 29 32 33 35 34 39 40 40 45 45 40 34 39 40 45 48 46 42 39 34 28 30 37 40 38 43 45 44 43 34 31 38 58 59 58 60 58 59 60 62
34 28 33 37 37 32 32 31 31 37 37 43 42 44 40 38 43 37 38 41 45 47 46 45 39 35 32 36 41 34 39 42 41 33 34 36 40 48 52 53 57 58 60 61 62
32 31 34 29 30 33 34 34 31 31 37 44 40 42 40 33 37 36 40 38 42 45 45 44 32 38 40 42 40 38 39 40 37 39 35 40 41 48 52 54 57 59 59 59 59
32 32 33 34 33 33 34 32 32 33 33 33 35 42 44 36 38 33 39 39 37 42 42 44 32 37 30 40 39 34 39 41 40 41 40 42 41 53 55 57 56 56 57 57 59
39 39 36 34 32 32 32 32 33 36 35 40 40 42 41 45 48 49 46 46 43 41 39 37 33 30 28 34 34 27 34 39 40 43 42 36 44 52 51 53 54 56 58 57 58
MSLP
1018.95 1019.49 1019.79 1020.12 1020.34 1020.53 1020.75 1021.01 1021.14 1021.28 1021.37 1021.49 1021.45 1021.42 1021.30 1021.14 1020.81 1020.47 1020.17 1020.11 1019.94 1019.73 1019.53 1019.02 1018.45 1018.24 1017.92 1017.62 1017.54 1017.22 1016.26 1015.41 1015.46 1015.60 1015.11 1015.73 1015.69 1016.05 1016.40 1016.21 1016.51 1016.64 1016.76 1017.50 1018.06
1018.44 1019.03 1019.40 1019.63 1020.05 1020.31 1020.46 1020.74 1020.94 1021.10 1021.26 1021.40 1021.42 1021.41 1021.34 1021.24 1020.99 1020.46 1020.07 1019.98 1019.98 1019.90 1019.49 1019.14 1018.66 1018.46 1017.93 1017.76 1017.66 1016.99 1016.19 1015.81 1016.18 1015.97 1015.76 1015.88 1015.76 1015.77 1016.08 1015.91 1015.85 1016.35 1017.37 1018.11 1018.59
1018.04 1018.43 1018.89 1019.27 1019.61 1019.98 1020.25 1020.50 1020.70 1020.89 1021.11 1021.27 1021.32 1021.30 1021.27 1021.08 1020.89 1020.12 1020.25 1019.97 1019.89 1019.98 1019.92 1019.62 1019.29 1018.86 1018.19 1018.13 1017.82 1017.48 1016.37 1016.61 1016.70 1016.84 1016.65 1016.40 1016.26 1016.22 1015.74 1015.37 1015.04 1015.36 1016.14 1017.61 1018.26
1017.47 1017.89 1018.43 1018.83 1019.21 1019.60 1019.97 1020.32 1020.48 1020.76 1021.00 1021.09 1021.27 1021.27 1021.29 1021.12 1020.97 1020.40 1020.29 1019.84 1019.80 1019.77 1019.90 1019.68 1019.41 1018.99 1018.42 1018.08 1018.09 1017.78 1017.44 1017.27 1017.31 1017.55 1017.19 1016.87 1016.76 1016.30 1015.94 1014.89 1015.32 1015.60 1016.06 1017.04 1017.55
1017.01 1017.41 1017.88 1018.39 1018.88 1019.29 1019.56 1020.07 1020.41 1020.61 1020.91 1021.04 1021.18 1021.29 1021.39 1021.22 1020.47 1020.37 1020.35 1020.16 1019.99 1020.01 1019.74 1019.63 1019.36 1019.04 1018.63 1018.45 1018.46 1018.15 1017.88 1017.91 1017.90 1017.94 1017.73 1017.64 1016.93 1016.46 1015.51 1015.31 1015.32 1015.84 1016.26 1016.28 1016.64
1016.61 1017.04 1017.42 1017.84 1018.28 1018.84 1019.38 1019.67 1020.06 1020.49 1020.81 1020.93 1021.08 1021.30 1021.39 1021.13 1020.45 1020.51 1020.39 1020.29 1020.22 1020.06 1019.97 1019.87 1019.45 1019.39 1019.09 1018.98 1018.76 1018.58 1018.46 1018.27 1018.38 1018.07 1017.96 1017.64 1016.72 1016.91 1014.38 1015.11 1015.19 1015.43 1015.64 1015.76 1015.83
1016.05 1016.38 1016.77 1017.25 1017.81 1018.35 1018.95 1019.39 1019.79 1020.08 1020.57 1020.84 1020.96 1021.23 1021.22 1020.29 1020.26 1020.37 1020.37 1020.48 1020.48 1020.31 1020.09 1020.10 1019.85 1019.66 1019.44 1019.50 1019.60 1019.23 1018.78 1018.49 1018.42 1018.35 1017.82 1017.59 1016.47 1015.86 1014.20 1014.91 1014.81 1014.67 1014.99 1015.32 1015.45
1015.45 1015.75 1016.22 1016.65 1017.26 1017.86 1018.54 1019.03 1019.48 1019.95 1020.22 1020.67 1020.94 1021.18 1020.54 1020.33 1020.28 1020.38 1020.38 1020.40 1020.46 1020.44 1020.31 1020.26 1020.17 1020.09 1019.98 1020.19 1019.91 1019.51 1019.23 1018.19 1017.50 1017.90 1017.55 1017.39 1015.03 1014.47 1014.22 1014.51 1014.33 1014.10 1014.12 1014.39 1014.75
1014.79 1015.08 1015.51 1016.00 1016.63 1017.33 1018.07 1018.70 1019.27 1019.79 1020.27 1020.61 1021.19 1021.15 1020.59 1020.46 1020.35 1020.04 1020.17 1020.19 1020.33 1020.38 1020.53 1020.48 1020.48 1020.11 1020.48 1019.98 1019.87 1019.65 1018.44 1018.16 1017.85 1018.12 1017.90 1017.22 1015.11 1014.48 1014.62 1014.39 1014.11 1013.82 1013.69 1013.76 1013.92
1014.18 1014.49 1014.91 1015.41 1016.05 1016.77 1017.64 1018.40 1019.06 1019.85 1020.44 1020.85 1020.98 1021.50 1020.65 1019.96 1019.88 1019.76 1020.02 1020.13 1020.17 1020.38 1020.76 1020.62 1020.43 1020.21 1020.19 1019.79 1018.56 1018.44 1018.50 1018.48 1017.98 1018.26 1017.90 1017.10 1015.93 1015.45 1014.81 1014.74 1014.38 1014.13 1013.89 1013.64 1013.58
1013.51 1013.87 1014.25 1014.74 1015.42 1016.04 1017.29 1018.57 1019.55 1020.10 1019.82 1019.04 1019.15 1019.38 1019.36 1019.75 1019.98 1020.18 1020.00 1020.15 1020.13 1020.42 1020.28 1020.19 1019.98 1019.41 1019.41 1019.23 1019.09 1018.93 1018.61 1018.39 1018.60 1018.53 1018.08 1016.66 1015.60 1015.32 1015.13 1014.74 1014.28 1013.64 1013.46 1013.26 1012.98
1012.85 1013.22 1013.71 1014.20 1014.78 1015.47 1016.01 1016.28 1016.39 1017.07 1018.98 1019.12 1019.35 1019.34 1019.64 1019.64 1019.93 1020.20 1020.22 1020.03 1019.81 1019.71 1019.98 1020.27 1019.26 1019.49 1019.67 1019.80 1019.68 1019.48 1019.15 1018.93 1018.94 1018.87 1018.34 1016.78 1014.91 1014.69 1014.47 1013.59 1013.56 1013.19 1012.72 1012.44 1012.03
1012.38 1012.70 1013.25 1013.84 1014.39 1015.22 1014.44 1015.24 1016.23 1016.49 1018.07 1018.56 1019.12 1018.95 1019.21 1019.46 1019.18 1019.25 1019.45 1019.46 1019.31 1019.62 1019.59 1019.27 1019.32 1019.56 1019.96 1020.01 1019.91 1019.43 1019.11 1019.07 1019.14 1018.87 1018.15 1017.11 1013.99 1012.78 1012.14 1012.12 1012.04 1012.08 1011.65 1010.95 1010.60
1011.83 1012.21 1012.68 1013.44 1014.90 1014.34 1014.36 1015.29 1015.82 1016.30 1017.44 1018.01 1018.22 1017.94 1018.50 1019.02 1018.80 1018.46 1018.78 1019.03 1019.36 1019.17 1019.62 1019.56 1019.65 1019.84 1019.87 1019.67 1019.88 1019.47 1019.67 1019.79 1019.66 1019.78 1018.62 1018.31 1014.11 1012.22 1011.82 1011.23 1011.23 1010.53 1010.66 1010.57 1010.54
1011.27 1011.70 1012.10 1012.65 1012.62 1013.16 1013.89 1015.67 1015.95 1016.76 1016.56 1016.22 1016.61 1016.53 1017.01 1017.77 1017.64 1018.35 1018.62 1019.06 1018.81 1018.70 1019.10 1018.65 1019.16 1019.56 1019.70 1019.51 1019.99 1019.78 1019.94 1020.21 1020.08 1019.91 1019.38 1018.14 1016.83 1011.17 1010.97 1010.37 1010.23 1009.93 1010.05 1010.18 1010.02
1010.74 1011.25 1011.67 1012.22 1012.47 1012.68 1014.26 1015.33 1016.34 1017.60 1015.05 1016.05 1015.65 1015.82 1016.61 1017.26 1017.85 1018.30 1018.47 1018.76 1018.99 1019.08 1018.95 1019.08 1019.84 1019.50 1019.16 1019.66 1019.78 1019.94 1020.39 1020.80 1020.55 1020.26 1018.95 1017.45 1016.29 1008.18 1009.53 1009.36 1009.21 1009.55 1009.41 1009.66 1009.77
1010.21 1010.73 1011.28 1011.55 1011.60 1012.85 1014.01 1015.64 1015.37 1014.46 1015.64 1015.27 1014.55 1014.93 1015.52 1016.08 1017.22 1017.27 1017.47 1017.80 1017.75 1018.68 1018.47 1019.41 1019.54 1019.65 1019.47 1019.83 1020.11 1020.14 1020.20 1020.39 1020.52 1019.97 1016.86 1016.16 1015.50 1008.33 1009.44 1009.65 1009.56 1009.35 1009.17 1009.52 1009.70
1009.49 1010.19 1010.47 1011.10 1011.90 1012.84 1012.60 1013.67 1012.05 1012.22 1013.08 1013.18 1013.72 1014.82 1015.09 1015.73 1016.48 1016.70 1017.10 1017.13 1017.27 1016.97 1017.19 1018.07 1019.11 1018.97 1018.67 1018.05 1018.43 1018.95 1018.98 1018.34 1018.39 1018.05 1016.43 1016.17 1012.52 1007.90 1008.75 1009.17 1009.27 1009.12 1009.11 1009.42 1009.21
1008.89 1009.61 1010.09 1010.50 1011.42 1011.69 1011.82 1010.60 1009.69 1010.21 1011.05 1011.63 1013.30 1014.22 1014.65 1014.86 1015.26 1015.99 1015.89 1015.85 1015.86 1015.93 1015.85 1016.76 1017.39 1017.74 1017.78 1017.84 1018.14 1018.63 1017.94 1018.26 1018.47 1018.50 1017.19 1013.95 1010.71 1008.80 1008.63 1008.55 1008.64 1008.59 1008.86 1008.69 1008.50
1008.28 1008.92 1009.07 1009.73 1010.80 1011.28 1010.38 1008.79 1009.39 1009.55 1009.98 1010.76 1010.44 1012.17 1012.51 1013.26 1014.08 1014.91 1015.22 1014.25 1014.65 1015.04 1015.51 1015.92 1016.78 1017.55 1017.95 1018.17 1017.88 1017.47 1017.78 1018.59 1018.65 1017.52 1015.80 1012.11 1010.56 1006.97 1007.39 1007.67 1007.95 1007.95 1008.10 1008.15 1007.95
1008.04 1007.95 1007.68 1008.94 1010.35 1009.75 1008.23 1008.45 1008.31 1008.68 1008.36 1008.51 1008.63 1010.24 1011.03 1011.45 1012.10 1012.91 1012.90 1013.12 1013.40 1014.16 1015.74 1015.98 1016.31 1018.07 1018.05 1017.07 1016.69 1017.30 1017.13 1016.93 1016.74 1016.03 1014.23 1012.16 1008.46 1006.54 1006.73 1007.12 1007.51 1008.07 1008.32 1008.27 1007.92
1006.81 1007.09 1007.08 1008.05 1008.56 1008.01 1008.08 1008.50 1008.16 1007.97 1007.67 1007.37 1008.06 1008.29 1009.17 1010.12 1011.37 1012.20 1011.70 1012.10 1012.38 1013.35 1014.20 1015.52 1016.16 1017.03 1017.20 1016.90 1016.66 1016.17 1015.73 1016.07 1015.49 1014.93 1014.86 1013.28 1007.28 1006.99 1006.58 1006.77 1007.57 1007.82 1007.65 1007.82 1007.89
1006.16 1006.34 1006.87 1007.28 1006.84 1007.52 1007.75 1008.31 1008.11 1007.54 1007.38 1007.13 1007.45 1007.27 1008.30 1008.98 1010.73 1011.21 1011.86 1012.39 1012.59 1013.16 1013.57 1015.39 1016.03 1016.71 1017.20 1017.38 1016.96 1016.02 1015.56 1015.16 1015.07 1014.87 1013.50 1011.97 1007.78 1007.26 1006.69 1006.44 1006.94 1007.22 1007.47 1007.20 1006.39
1005.75 1006.09 1006.84 1006.44 1006.44 1006.87 1006.63 1007.23 1007.88 1007.81 1007.19 1006.85 1006.68 1006.98 1008.34 1008.86 1009.03 1010.23 1011.47 1012.39 1012.73 1012.90 1013.48 1014.55 1014.71 1014.26 1013.22 1013.87 1014.51 1015.19 1014.97 1014.95 1014.97 1014.35 1011.58 1012.11 1009.75 1007.35 1006.35 1006.05 1006.99 1006.51 1006.52 1005.92 1005.28
1005.28 1004.98 1004.40 1004.17 1005.06 1005.79 1006.34 1006.47 1006.62 1006.90 1007.58 1006.62 1006.03 1006.08 1006.29 1008.10 1008.96 1009.33 1010.79 1012.26 1012.79 1012.79 1013.41 1013.84 1013.75 1014.20 1013.33 1014.06 1014.40 1014.38 1014.12 1013.95 1013.75 1012.47 1012.58 1010.48 1011.03 1008.05 1005.55 1006.78 1006.55 1006.07 1005.40 1005.43 1005.02
1004.15 1004.51 1004.58 1004.01 1004.54 1004.26 1004.20 1004.75 1006.19 1005.95 1006.12 1006.49 1005.48 1005.22 1005.24 1005.72 1006.30 1007.43 1008.88 1010.35 1010.67 1012.23 1012.65 1013.50 1013.79 1014.28 1014.30 1014.40 1014.54 1014.33 1013.13 1012.88 1012.75 1012.30 1012.21 1010.75 1010.32 1007.72 1006.86 1006.11 1005.87 1005.80 1005.27 1004.97 1004.29
1003.02 1004.16 1004.50 1003.87 1004.00 1004.31 1004.52 1005.48 1005.65 1005.95 1006.08 1005.98 1005.40 1004.45 1005.02 1005.05 1005.68 1006.18 1007.28 1008.19 1008.39 1009.38 1011.48 1012.80 1013.65 1014.40 1014.34 1014.48 1014.86 1014.07 1009.84 1011.90 1011.66 1011.29 1010.90 1010.40 1008.13 1006.93 1007.19 1006.12 1005.04 1004.84 1005.44 1004.72 1003.90
Wind_Speed
16 16 16 14 13 12 11 8 6 7 5 4 1 2 5 7 7 3 3 2 3 6 7 8 3 2 2 2 1 1 5 7 4 6 3 6 7 3 1 4 4 5 2 4 13
18 17 17 16 14 12 11 10 8 6 6 4 3 2 3 5 3 6 4 7 4 6 5 5 6 0 4 4 4 6 6 7 1 2 2 6 5 6 6 6 7 6 5 5 13
19 19 18 17 16 14 12 12 10 8 6 6 4 4 3 3 3 1 8 9 3 2 2 2 1 3 6 3 5 4 11 5 3 0 1 2 3 1 4 7 7 8 9 11 14
20 20 19 18 17 16 14 12 11 9 7 6 6 5 2 2 5 2 9 6 5 6 4 3 3 5 6 8 5 7 6 3 2 2 3 3 3 4 8 6 3 1 2 12 15
20 20 20 19 18 17 16 14 12 10 9 7 8 6 4 3 6 2 6 5 4 4 6 6 7 5 9 6 6 9 6 4 3 3 2 1 6 8 15 14 7 4 5 11 14
18 21 21 21 19 18 17 16 14 12 10 9 10 7 5 7 2 1 1 2 3 4 5 6 5 3 3 3 10 3 8 6 4 6 6 7 13 3 16 11 11 9 11 11 13
15 20 21 21 21 19 18 17 15 13 10 11 12 7 7 10 3 3 2 1 0 0 4 3 1 6 5 4 3 1 6 7 9 7 7 6 14 16 23 14 15 16 13 11 13
16 17 22 22 22 20 19 18 16 13 12 11 11 6 7 2 4 3 3 1 1 2 1 1 2 3 2 4 3 4 5 8 5 9 7 13 20 18 16 13 18 17 15 14 15
16 15 19 23 23 22 20 18 15 12 12 9 7 5 6 6 5 10 8 4 4 3 1 2 2 3 5 7 5 6 8 12 7 2 3 14 11 8 6 10 16 15 15 13 13
17 16 16 23 24 22 21 19 15 9 6 6 1 5 6 6 4 6 7 7 4 7 3 7 5 8 5 11 11 11 10 7 10 2 4 12 17 15 18 13 13 12 11 12 12
18 17 17 18 24 25 20 10 7 4 9 7 9 4 2 6 4 4 8 8 4 10 10 10 10 13 18 17 11 4 7 10 3 4 9 17 19 16 16 18 19 20 19 18 19
18 18 17 18 20 27 19 14 16 9 8 13 3 12 2 5 4 5 8 11 12 14 13 8 17 14 7 13 15 11 8 10 9 10 9 18 26 23 22 25 22 22 22 22 23
18 18 18 16 17 14 14 24 11 10 4 11 10 11 7 7 7 14 17 12 15 15 18 17 2 13 10 10 15 16 16 14 14 11 16 19 24 19 10 14 21 21 25 26 25
20 18 18 17 11 13 15 19 12 3 4 9 16 9 14 8 8 9 16 11 8 19 16 14 12 5 14 19 15 15 8 12 11 9 7 2 13 17 15 15 16 20 20 20 19
18 18 18 22 6 18 8 12 8 5 12 17 14 10 17 20 12 8 18 7 13 13 11 10 13 16 11 13 13 8 6 7 10 11 13 16 11 6 5 10 15 18 16 17 18
20 19 19 10 10 9 17 16 11 6 9 11 11 18 23 22 8 11 15 8 4 9 9 7 0 13 10 10 16 9 7 3 4 5 9 14 12 17 15 12 10 9 13 12 12
22 21 19 6 10 13 20 11 9 11 12 11 10 18 27 15 18 15 20 22 14 13 16 10 11 4 6 10 9 11 13 4 5 7 11 1 13 21 7 9 10 12 13 11 10
23 20 17 9 8 19 13 13 18 14 11 9 14 21 21 18 18 17 21 20 21 14 12 13 9 18 14 12 10 22 18 7 9 8 6 4 18 11 1 8 14 12 13 11 15
22 11 12 10 10 11 13 21 17 9 14 19 22 21 13 19 13 18 22 23 21 24 16 12 11 11 13 11 15 17 20 11 5 1 5 9 16 20 18 17 16 18 11 10 12
10 10 14 16 12 7 8 25 8 13 19 23 15 19 18 24 15 19 20 19 23 27 18 6 5 1 13 13 14 12 12 8 9 8 10 14 20 21 8 16 17 18 15 11 12
9 6 8 15 10 9 11 7 8 18 20 20 13 14 17 23 22 23 20 8 30 25 20 8 4 5 8 14 18 11 10 9 9 14 7 11 16 13 15 12 11 10 11 15 19
6 11 6 16 14 3 13 8 5 18 19 11 11 16 23 29 24 22 24 15 19 22 29 15 6 7 11 4 15 21 21 19 10 11 13 18 27 12 20 21 19 20 17 15 17
4 4 7 14 14 9 8 8 5 13 23 14 14 14 15 24 15 18 21 9 15 23 24 14 8 6 5 5 4 14 19 22 21 13 18 17 19 12 18 23 19 21 20 19 22
3 7 4 13 8 9 9 9 14 13 16 15 10 13 15 17 11 23 14 7 14 20 11 18 10 16 17 5 11 14 18 22 21 17 24 20 29 32 32 30 22 22 21 24 24
3 6 4 4 11 17 7 11 10 10 13 21 14 22 17 12 18 11 19 8 12 17 15 14 12 20 21 14 6 8 15 25 27 28 20 25 23 33 35 25 24 25 27 27 27
7 3 1 1 10 13 12 13 12 6 11 14 13 22 24 16 19 18 22 15 15 17 20 12 6 13 14 19 15 14 21 17 23 25 24 28 27 32 32 30 29 27 27 25 26
3 4 1 7 17 17 13 10 8 11 6 13 16 22 22 18 22 14 14 18 15 21 24 16 10 7 6 8 11 14 31 24 23 24 21 23 30 30 27 28 29 26 21 24 27
Wind_Direction
211 211 209 214 216 218 222 219 198 181 173 160 115 15 344 330 332 314 257 351 317 347 320 311 344 2 247 132 133 220 232 240 223 180 203 152 198 158 122 194 216 192 276 83 142
208 211 210 207 210 215 212 219 213 194 192 194 198 267 345 336 313 271 325 305 310 339 326 290 262 279 178 179 171 220 234 225 207 231 274 177 233 158 189 191 220 212 176 140 161
211 209 207 207 203 206 210 210 208 204 205 201 207 258 316 309 291 166 330 299 248 196 274 315 252 226 204 196 182 187 241 190 122 216 238 204 249 280 200 214 233 231 204 177 181
214 207 205 205 203 200 204 205 193 190 203 203 204 231 252 267 236 66 347 354 195 170 173 192 185 188 212 202 178 206 228 200 151 143 184 187 311 267 242 257 32 283 259 182 194
221 211 204 205 201 200 199 197 199 192 191 201 198 211 180 209 248 10 343 34 104 157 183 184 193 188 212 204 167 223 215 201 196 201 248 245 248 274 261 261 267 249 236 210 215
228 217 205 200 198 198 200 194 193 193 193 198 197 195 200 220 54 314 353 356 105 158 168 185 214 191 190 208 216 189 240 219 223 235 261 262 262 214 256 250 252 253 245 240 228
231 222 210 200 195 196 198 196 194 186 193 203 198 183 225 232 113 129 96 16 54 198 165 185 193 213 167 171 150 180 248 218 220 220 240 225 251 231 257 252 259 260 249 243 238
227 223 216 204 198 194 194 192 191 189 183 199 185 183 238 241 199 183 163 187 190 173 223 158 204 128 234 116 123 197 221 246 166 214 231 202 257 248 260 254 246 252 249 244 237
230 216 214 208 197 193 189 186 185 184 190 176 167 196 232 127 185 210 184 197 162 134 93 143 216 188 161 195 202 198 235 225 238 231 289 215 265 254 290 255 254 259 261 255 252
223 217 213 213 201 189 184 176 178 166 151 127 318 184 185 214 177 196 181 174 165 161 146 198 189 194 205 196 217 223 226 224 238 125 241 255 256 267 278 277 279 278 270 270 263
220 215 210 213 207 190 173 152 144 177 195 187 189 221 336 104 128 163 176 167 181 192 190 197 203 210 211 218 250 260 241 245 231 243 301 270 274 271 274 274 266 262 263 263 264
216 210 210 207 202 205 176 188 180 137 169 217 228 189 152 176 140 182 186 180 187 196 188 190 224 218 230 220 226 228 232 237 257 272 285 287 282 278 266 260 258 261 262 259 260
219 206 203 203 202 201 187 188 139 134 158 206 202 206 164 178 199 186 185 190 192 195 201 204 181 216 211 208 216 227 236 246 261 283 271 290 284 262 247 250 249 248 248 251 248
220 210 200 191 204 199 226 178 138 149 200 181 194 221 187 170 233 176 197 179 192 202 198 222 200 163 200 220 215 230 227 246 256 272 268 58 294 279 274 259 242 244 239 249 255
221 216 198 187 174 194 182 123 110 76 227 160 169 165 168 182 128 187 180 193 193 178 187 192 194 191 199 206 198 219 179 232 246 250 275 258 268 249 262 259 247 250 248 246 250
227 216 203 202 212 190 118 139 115 194 219 176 154 174 165 194 171 138 176 194 167 201 226 221 52 206 199 193 196 155 147 137 193 234 254 224 227 262 245 254 268 251 247 250 251
222 217 205 169 207 150 136 160 186 212 148 170 170 172 177 171 173 175 178 188 176 182 202 193 203 165 168 170 192 186 168 174 207 214 247 191 218 250 303 288 247 257 274 276 265
214 211 219 196 220 152 157 195 224 153 181 159 167 165 185 157 191 186 182 195 213 205 170 195 203 198 180 194 181 198 187 194 213 217 270 198 230 251 251 230 253 278 285 287 281
208 210 212 198 178 182 187 211 205 170 169 159 147 167 177 181 164 181 199 205 201 200 200 200 226 187 194 183 173 191 218 211 313 122 278 237 255 270 251 246 253 269 290 288 283
200 211 213 193 187 202 215 212 183 171 154 157 154 178 177 180 164 183 186 208 208 206 220 184 191 275 179 199 214 193 166 188 215 229 236 248 256 254 281 282 283 285 301 299 304
197 217 196 181 179 218 216 227 186 177 158 175 179 170 190 176 188 184 190 198 197 188 200 180 227 141 172 202 194 188 187 221 213 228 243 268 258 255 271 275 287 301 284 290 296
192 210 181 157 196 189 221 165 268 180 177 177 185 163 184 182 187 188 200 211 195 178 189 193 227 189 199 169 229 219 210 200 213 212 232 250 263 281 287 290 293 288 293 302 299
185 173 172 176 213 208 146 192 213 178 187 180 179 184 178 178 181 196 198 177 187 174 176 159 189 174 191 231 190 221 217 225 229 248 242 234 266 281 287 287 287 293 299 288 285
180 161 236 190 210 197 163 168 183 194 191 197 165 158 153 180 185 191 180 165 182 184 163 164 198 215 220 134 176 211 215 219 220 229 242 240 261 279 279 276 298 292 288 284 283
159 224 219 158 175 175 200 155 168 152 211 201 198 178 163 167 182 183 175 152 177 187 179 189 227 225 246 255 202 213 225 221 221 230 232 255 247 265 271 288 284 289 289 291 294
165 188 82 197 171 151 166 203 189 158 156 203 179 190 190 183 188 175 169 175 174 180 187 198 230 215 243 237 239 251 244 227 225 235 242 250 256 256 276 280 281 283 287 296 296
130 153 229 170 175 180 186 171 171 167 181 206 198 186 197 196 194 185 164 166 155 161 183 182 179 164 224 211 213 248 242 231 231 235 230 237 246 259 262 272 278 286 299 293 296